"Pseudo-MPEC" for tscay01

Created 2025 Jun 25 20:35:12 UT using Find_Orb

Click here for an explanation of pseudo-MPECs

 
 Astrometry: 
     tscay01*KB2025 06 03.88009915 05 36.625+12 54 45.59   ~65Kl 18.98GWNEOCPL92
     tscay01 KB2025 06 03.88364115 05 36.753+12 54 46.93   ~65Kl 19.60GWNEOCPL92
     tscay01 KB2025 06 03.88718815 05 36.768+12 54 49.86   ~65Kl 19.17GWNEOCPL92

Station data:
(L92) San Costantino  (N38.705391 E16.002110)  Italy.  Observer T. Scarmato.
   0.25-m Newtonian reflector + CCD.

Orbital elements:  tscay01
   Perihelion 2025 Mar 30.14275 +/- 48.9 TT =  3:25:33 (JD 2460764.64275)
Epoch 2025 Jun  4.0 TT = JDT 2460830.5   Earth MOID: 0.0449      AutoNEOCP
M   5.92905084 +/- 30               (J2000 ecliptic)
n   0.09002882 +/- 0.215            Peri.  271.97872 +/- 80
a   4.93039432 +/- 7.84             Node   234.37602 +/- 39
e   0.8793993 +/- 0.26              Incl.   40.94841 +/- 13
P  10.94769                H 19.44  G  0.15   U 11.7  SR
q 0.59460877 +/- 0.476    Q 9.26617988 +/- 50
From 3 observations 2025 June 3 (10.2 min); mean residual 0".38
Residuals in arcseconds: 
250603 L92  .28-  .28+    250603 L92  .55+  .53-    250603 L92  .27-  .26+    

Ephemerides (geocentric):
Date (UTC) HH   RA             Dec           delta  r     elong  mag " sig PA
---- --------  ------------   ------------  ------ ------ -----  --- --------
2025 06 25 21  15 16 34.545   +13 01 50.67  .86467 1.6514 122.6 21.6  34d  82
2025 06 25 22  15 16 36.019   +13 01 38.63  .86555 1.6519 122.5 21.6  34d  82
2025 06 25 23  15 16 37.494   +13 01 26.56  .86642 1.6525 122.5 21.6  34d  82
2025 06 26 00  15 16 38.970   +13 01 14.47  .86730 1.6530 122.5 21.6  34d  82
2025 06 26 01  15 16 40.447   +13 01 02.36  .86818 1.6536 122.5 21.6  34d  82
2025 06 26 02  15 16 41.925   +13 00 50.22  .86906 1.6541 122.4 21.6  34d  82
2025 06 26 03  15 16 43.404   +13 00 38.06  .86994 1.6547 122.4 21.6  34d  82
2025 06 26 04  15 16 44.885   +13 00 25.87  .87082 1.6552 122.4 21.6  34d  82
2025 06 26 05  15 16 46.366   +13 00 13.66  .87170 1.6558 122.4 21.6  34d  82
2025 06 26 06  15 16 47.849   +13 00 01.42  .87258 1.6564 122.3 21.6  34d  82
2025 06 26 07  15 16 49.332   +12 59 49.16  .87345 1.6569 122.3 21.6  34d  82
2025 06 26 08  15 16 50.817   +12 59 36.87  .87433 1.6575 122.3 21.6  34d  82
2025 06 26 09  15 16 52.302   +12 59 24.57  .87521 1.6580 122.3 21.6  34d  82
2025 06 26 10  15 16 53.789   +12 59 12.23  .87609 1.6586 122.2 21.6  34d  82
2025 06 26 11  15 16 55.277   +12 58 59.88  .87697 1.6591 122.2 21.6  34d  82
2025 06 26 12  15 16 56.766   +12 58 47.50  .87785 1.6597 122.2 21.6  34d  82
2025 06 26 13  15 16 58.256   +12 58 35.09  .87873 1.6602 122.2 21.6  34d  82
2025 06 26 14  15 16 59.747   +12 58 22.66  .87961 1.6608 122.1 21.6  34d  82
2025 06 26 15  15 17 01.239   +12 58 10.21  .88049 1.6613 122.1 21.6  34d  82
2025 06 26 16  15 17 02.732   +12 57 57.74  .88137 1.6619 122.1 21.6  34d  82
2025 06 26 17  15 17 04.227   +12 57 45.24  .88225 1.6624 122.1 21.6  34d  82
2025 06 26 18  15 17 05.722   +12 57 32.72  .88313 1.6630 122.0 21.6  34d  82
2025 06 26 19  15 17 07.219   +12 57 20.17  .88401 1.6635 122.0 21.6  34d  82
2025 06 26 20  15 17 08.716   +12 57 07.61  .88489 1.6641 122.0 21.6  34d  82
2025 06 26 21  15 17 10.215   +12 56 55.01  .88577 1.6647 122.0 21.6  34d  82
2025 06 26 22  15 17 11.714   +12 56 42.40  .88665 1.6652 121.9 21.6  34d  82
2025 06 26 23  15 17 13.215   +12 56 29.76  .88754 1.6658 121.9 21.6  34d  82
2025 06 27 00  15 17 14.717   +12 56 17.10  .88842 1.6663 121.9 21.6  34d  82
2025 06 27 01  15 17 16.220   +12 56 04.42  .88930 1.6669 121.9 21.6  35d  82
2025 06 27 02  15 17 17.724   +12 55 51.71  .89018 1.6674 121.8 21.6  35d  82
2025 06 27 03  15 17 19.229   +12 55 38.99  .89106 1.6680 121.8 21.6  35d  82
2025 06 27 04  15 17 20.735   +12 55 26.24  .89194 1.6685 121.8 21.6  35d  82
2025 06 27 05  15 17 22.243   +12 55 13.46  .89282 1.6691 121.8 21.6  35d  82
2025 06 27 06  15 17 23.751   +12 55 00.67  .89371 1.6696 121.7 21.6  35d  82
2025 06 27 07  15 17 25.260   +12 54 47.85  .89459 1.6702 121.7 21.6  35d  82
2025 06 27 08  15 17 26.771   +12 54 35.01  .89547 1.6707 121.7 21.7  35d  82
2025 06 27 09  15 17 28.282   +12 54 22.14  .89635 1.6713 121.7 21.7  35d  82
2025 06 27 10  15 17 29.795   +12 54 09.26  .89723 1.6718 121.6 21.7  35d  82
2025 06 27 11  15 17 31.309   +12 53 56.35  .89812 1.6724 121.6 21.7  35d  82
2025 06 27 12  15 17 32.824   +12 53 43.42  .89900 1.6729 121.6 21.7  35d  82
2025 06 27 13  15 17 34.339   +12 53 30.47  .89988 1.6735 121.6 21.7  35d  82
2025 06 27 14  15 17 35.856   +12 53 17.50  .90077 1.6740 121.5 21.7  35d  82
2025 06 27 15  15 17 37.374   +12 53 04.50  .90165 1.6746 121.5 21.7  35d  82
2025 06 27 16  15 17 38.894   +12 52 51.49  .90253 1.6751 121.5 21.7  35d  82
2025 06 27 17  15 17 40.414   +12 52 38.45  .90341 1.6757 121.5 21.7  35d  82
2025 06 27 18  15 17 41.935   +12 52 25.39  .90430 1.6763 121.4 21.7  35d  82
2025 06 27 19  15 17 43.457   +12 52 12.31  .90518 1.6768 121.4 21.7  35d  82
2025 06 27 20  15 17 44.981   +12 51 59.20  .90606 1.6774 121.4 21.7  35d  82